Tracking 17150 objects as of 5-August-2015
HD Live streaming from Space Station

ERS 2

Track ERS 2 now!
10-day predictions
ERS 2 is classified as:


NORAD ID: 23560
Int'l Code: 1995-021A
Perigee: 520.8 km
Apogee: 528.3 km
Inclination: 98.5 °
Period: 95.0 minutes
Semi major axis: 6895 km
RCS: 9.2311 m2 (large)
Launch date: April 21, 1995
Source: European Space Agency (ESA)

Earth resources spacecraft; measure ocean surface and waves, temperatures; monitor ozone and ozone-destroying gases; ocean currents and changes in Arctic and Antarctic ice.
Your satellite tracking list
Your tracking list is empty





NASA's NSSDC Master Catalog

Two Line Element Set (TLE):
1 23560U 95021A   15216.20251129  .00003537  00000-0  18747-3 0  9998
2 23560 098.5131 110.8366 0005438 095.3365 264.8485 15.16178522 71712

Source of the keplerian elements: AFSPC

N2YO: 230